sat.trackr.live / text

‹ back to catalog

STARLINK-34650

NORAD 66258 · 2025-245AA

PAYLOAD ACTIVE UNKNOWN

§ Identity

Operator
Country
US
Launch date
2025-10-29
Launch site
AFETR
Launch vehicle
Mass (kg)
RCS (m²)

Purposes: comms

External: N2YO · Heavens-Above · Gunter

§ Orbital elements

Epoch: 2026-09-20T19:40:38.216928Z

Period
93.85 min
Inclination
53.1580°
Eccentricity
0.0001475
Mean motion
15.34389764 rev/d
Perigee alt
461.7 km
Apogee alt
463.7 km
Semi-major
6,840.9 km
B*
2.1772e-4
RAAN
95.9845°
Arg perigee
302.0302°
Mean anomaly
58.0557°
Rev number
5,115

§ Raw data

STARLINK-346501 66258U 25245AA  26263.81988677  .00006984  00000+0  21772-3 0  99962 66258  53.1580  95.9845 0001475 302.0302  58.0557 15.34389764 51150

JSON: /api/v1/satellites/66258 · /tle

For live sub-satellite position, see the globe view (requires WebGL).

§ Visibility from observer

Set your observer location to see the next 7 days of passes ≥ 10°. The values pass through the URL so the page stays shareable.

No JS? Fill the form by hand. The geolocation button needs JavaScript.